Location: Lane
(33.5226°N, 79.8788°W)
Time: 09:15:00
(UTC+00:00)

Altair - Pass Details

Date: 03 October 2022
Orbit: 1501 x 1682 km, 47.2° (Epoch: 30 November)

Event Time Altitude Azimuth Distance (km) Brightness Sun altitude
Rises 18:47:00 0° 295° (WNW) 4,935 10.3 45.7°
Reaches altitude 10° 18:51:06 10° 281° (WNW) 3,943 10.0 45.2°
Maximum altitude 18:58:15 22° 236° (SW) 3,051 10.5 44.2°
Drops below altitude 10° 19:05:22 10° 189° (S) 3,883 10.4 43.3°
Sets 19:09:25 0° 175° (S) 4,841 10.6 42.7°
